Espaço - Ciências - Fenômenos Naturais
Meteógrafos Informações Meteorológicas em tempo real

Aeroporto de Montes Claros

Histórico do Tempo
Temperatura atual: 19 graus 66 F    Umidade relativa: 77 %
Velocidade do vento: 02 nós 3 Km/h    Direção: 240 graus WSW
Ajuste do altímetro ..: 1016 HPA
Visibilidade: Ótima    Tempo presente: Céu Limpo

Observação

Data Hora BRTTempo°CUmidadePressãoVentoVisib.
24/05 - 07:56   Céu Limpo 19° 77% 1016 Oeste-sudoeste/3 km/h OK
24/05 - 06:56   Céu Limpo 19° 77% 1016 Oeste-sudoeste/3 km/h OK
24/05 - 05:56   Céu Limpo 19° 77% 1016 Norte-nordeste/1 km/h OK
24/05 - 04:56   ND ND° ND% ND /0 km/h ND
24/05 - 03:56   ND ND° ND% ND /0 km/h ND
24/05 - 02:56   Céu Limpo 23° 60% 1015 Oeste/3 km/h OK
24/05 - 01:56   Céu Limpo 23° 60% 1015 Oeste/3 km/h OK
24/05 - 00:56   Céu Limpo 24° 57% 1016 Norte/0 km/h OK
23/05 - 23:56   Céu Limpo 23° 64% 1016 Norte/0 km/h OK
23/05 - 22:56   Céu Limpo 23° 64% 1016 Oeste/3 km/h OK
23/05 - 21:56   Céu Limpo 24° 57% 1016 Oeste-noroeste/5 km/h OK
23/05 - 20:56   Não Disponível 28° 39% 1015 Sul/7 km/h OK
23/05 - 19:56   Não Disponível 28° 39% 1015 Sul/7 km/h OK
23/05 - 18:56   Não Disponível 32° 27% 1014 Norte/0 km/h OK
23/05 - 17:56   Não Disponível 32° 27% 1014 Norte/0 km/h OK
23/05 - 16:56   Não Disponível 32° 25% 1014 Sul-sudoeste/5 km/h OK
23/05 - 15:56   Poucas nuvens esparsas 33° 26% 1015 Oeste/10 km/h OK
23/05 - 14:56   Poucas nuvens esparsas 32° 29% 1016 Este-nordeste/10 km/h OK
23/05 - 13:56   Poucas nuvens esparsas 32° 29% 1016 Este-nordeste/10 km/h OK
23/05 - 12:56   Não Disponível 30° 37% 1018 Norte/10 km/h 9999
23/05 - 11:56   Céu Limpo 28° 45% 1019 /7 km/h OK
23/05 - 10:56   Céu Limpo 28° 45% 1019 /7 km/h OK
23/05 - 09:56   Céu Limpo 27° 47% 1019 /5 km/h OK
23/05 - 08:56   Céu Limpo 22° 64% 1019 /1 km/h OK


Apolo11.com - Todos os direitos reservados - 2000 - 2019
Política de Privacidade   |     Termo de Uso e Licenciamento   |  -   Entre em Contato

"Política é a guerra sem sangue enquanto a guerra é a política com sangue" - Mao Tsé-Tung